Hourly Data Report for September 09, 2017

All times are specified in Local Standard Time (LST). Add 1 hour to adjust for Daylight Saving Time where and when it is observed.

KOUCHIBOUGUAC CS
NEW BRUNSWICK

46°47'00.000" N
65°01'00.000" W
21.00 m
8102328
71670
AKC

Download Data

Hourly Data (September 2017)
Hourly Data Report for September 9, 2017
Temp Definition
°C
Dew Point Temp Definition
°C
Rel Hum Definition
%
Wind Dir Definition
10's deg

Wind Spd Definition
km/h
Visibility Definition
km
Stn Press Definition
kPa
Hmdx Definition


Wind Chill Definition


Weather Definition


TIME
00:00 11.1 10.6 97 15 1   101.65     LegendNANA
01:00 9.7 9.3 98 16 1   101.67     LegendNANA
02:00 9.2 9.0 98 18 2   101.67     LegendNANA
03:00 8.5 8.2 98 16 3   101.71     LegendNANA
04:00 9.0 8.8 99   0   101.72     LegendNANA
05:00 9.8 9.6 99 25 1   101.76     LegendNANA
06:00 11.2 11.0 99 36 5   101.83     LegendNANA
07:00 13.9 13.7 99 36 8   101.88     LegendNANA
08:00 14.2 13.6 96 1 6   101.95     LegendNANA
09:00 15.6 14.4 93 1 7   101.99     LegendNANA
10:00 15.5 13.4 88 1 7   102.05     LegendNANA
11:00 16.5 13.4 82 3 6   102.06     LegendNANA
12:00 18.0 11.9 68 34 8   102.05     LegendNANA
13:00 17.3 11.9 71 36 12   102.06     LegendNANA
14:00 18.3 13.6 74 3 9   102.04     LegendNANA
15:00 18.6 11.7 64 3 8   102.04     LegendNANA
16:00 17.4 13.3 77 3 9   102.05     LegendNANA
17:00 15.2 12.5 84 3 8   102.09     LegendNANA
18:00 14.9 12.1 84 3 7   102.12     LegendNANA
19:00 13.9 11.8 88 2 9   102.16     LegendNANA
20:00 13.4 11.9 91 36 8   102.19     LegendNANA
21:00 13.4 11.8 90 1 7   102.21     LegendNANA
22:00 13.3 11.7 90 36 7   102.24     LegendNANA
23:00 13.3 11.6 90 36 8   102.23     LegendNANA

Notes on Data Quality.

Legend

  • E = Estimated
  • M = Missing
  • NA = Not Available
  • ‡ = Partner data that is not subject to review by the National Climate Archives
Date modified: